C/2017 U5 ( PanSTARRS )

Japanese version
Home page
Updated on December 24, 2017

---------------------------------------------------------------------

* Profile

Discovery Date October 30, 2017
Magnitude 21.3 mag
Discoverer Pan-STARRS 1 telescope (Haleakala)

* Orbital Elements

Epoch 2018 Jan. 2.0 TT = JDT 2458120.5
T 2017 Dec. 18.48062 TT                                 MPCW
q   4.3273916            (2000.0)            P               Q
n   0.01414437     Peri.  262.04773     +0.40425182     -0.90977439
a  16.9335073      Node   163.12753     +0.91352167     +0.39648894
e   0.7444480      Incl.   18.95795     +0.04537198     +0.12291088
P  69.68
From 69 observations 2017 Oct. 30-Nov. 27, mean residual 0".4.

* Magnitudes Graph

        m1 = 11.5 + 5 log d + 10.0 log r

---------------------------------------------------------------------

The orbital elements are published on M.P.E.C. 2017-X08.
The magnitudes graphs are made with Comet for Windows.

---------------------------------------------------------------------

Copyright(C) Seiichi Yoshida (comet@aerith.net). All rights reserved.